Flag Weather past 2 weeks in Cuxhaven, Lower Saxony, Germany

Now
36 °F

Passing clouds.


Feels Like: 27 °F
Forecast: 34 / 40 °F
Wind: 14 mph from Southeast

Location: Nordholz

Current Time: Nov 27, 2014 at 8:57:56 PM

Latest Report: Nov 27, 2014 at 8:20 PM


Visibility: 6 mi

Pressure: 29.92 "Hg

Humidity: 81%

Dew point: 30 °F

Location of CuxhavenLocation

Historic Weather in Cuxhaven — Graph

°F

Cuxhaven temperature yesterday

Maximum temperature yesterday: 39 °F (at 10:20 AM)
Minimum temperature yesterday: 34 °F (at 6:20 AM)
Average temperature yesterday: 37 °F

Past Weeks' High & Low Weather Summary

 TemperatureHumidityPressure
High54 °F (Nov 14, 1:20 PM)100% (Nov 12, 7:20 PM)30.39 "Hg (Nov 12, 7:20 PM)
Low28 °F (Nov 21, 5:20 AM)71% (Nov 24, 11:20 AM)29.53 "Hg (Nov 16, 2:50 PM)
Average44 °F91%30.01 "Hg
* Reported Nov 12 7:20 PM — Nov 27 7:20 PM, Cuxhaven, Weather by CustomWeather, © 2014

Note: Actual official high and low records may vary slightly from our data, if they occured in-between our weather recording intervals... More about our weather records

Advertising

Cuxhaven weather history for previous 24 hours

 ConditionsComfort  
Time TempWeatherWind HumidityBarometerVisibility
7:20 PM
Nov 27
36 °FPassing clouds.13 mph87%29.89 "Hg6 mi
6:20 PM37 °FPassing clouds.13 mph81%29.89 "Hg6 mi
5:20 PM37 °FPassing clouds.10 mph81%29.89 "Hg4 mi
4:20 PM37 °FFog.12 mph81%29.89 "Hg3 mi
3:20 PM37 °FPartly sunny.12 mph81%29.86 "Hg4 mi
2:20 PM37 °FPartly sunny.12 mph81%29.89 "Hg4 mi
1:20 PM39 °FBroken clouds.15 mph75%29.89 "Hg4 mi
12:20 PM37 °FBroken clouds.14 mph81%29.89 "Hg4 mi
11:20 AM37 °FBroken clouds.14 mph81%29.92 "Hg4 mi
10:20 AM36 °FFog.13 mph87%29.92 "Hg3 mi
9:20 AM36 °FFog.12 mph87%29.92 "Hg3 mi
8:20 AM36 °FFog.10 mph87%29.92 "Hg3 mi
7:20 AM36 °FPassing clouds.12 mph87%29.92 "Hg4 mi
6:20 AM34 °FPassing clouds.12 mph93%29.92 "Hg4 mi
5:20 AM34 °FPassing clouds.9 mph93%29.92 "Hg6 mi
4:20 AM36 °FPassing clouds.13 mph87%29.95 "HgN/A
3:20 AM36 °FPassing clouds.12 mph87%29.95 "HgN/A
2:20 AM37 °FPassing clouds.12 mph87%29.98 "Hg5 mi
1:20 AM37 °FPassing clouds.13 mph87%29.98 "Hg5 mi
12:20 AM39 °FPassing clouds.13 mph81%30.01 "Hg6 mi
12:00 AM39 °FPassing clouds.13 mph81%30.01 "Hg6 mi
11:20 PM
Nov 26
39 °FPassing clouds.13 mph81%30.01 "Hg6 mi
10:20 PM39 °FPassing clouds.15 mph87%30.04 "Hg6 mi
9:20 PM37 °FPassing clouds.13 mph87%30.04 "Hg6 mi
8:20 PM37 °FPassing clouds.13 mph87%30.04 "Hg5 mi
Weather by CustomWeather, © 2014

See weather overviewHow to use our weather pages